Location: Kerb�bon
(47.7970°N, 3.3487°W)
Time: 11:45:53
(UTC+00:00)

Cosmos 2228 Rocket - Pass Details

Date: 12 May 2021
Orbit: 618 x 651 km, 82.5° (Epoch: 18 June)

Event Time Altitude Azimuth Distance (km) Brightness Sun altitude
Exits shadow 22:07:18 29° 194° (SSW) 1,160 4.1 -18.4°
Maximum altitude 22:09:34 82° 279° (W) 642 3.1 -18.6°
Drops below altitude 10° 22:14:04 10° 8° (N) 2,029 6.5 -18.9°
Sets 22:16:20 0° 9° (N) 2,948 7.4 -19.1°
